Volver al catálogo

CZ-6A DEB

ActivoSSO
NORAD 54958·DEBRIS·🇨🇳 China

Lanzado Nov 11, 2022 desde Taiyuan Satellite Launch Center

Loading…

Próximos Pases (próximas 24 horas)

TLE

ActualizadoSource: Space-Track

Época: Sep 14, 2026, 11:04 UTC

1 54958U 22151SX  26257.46128314  .00003353  00000-0  14407-2 0  9995
2 54958  98.8180 267.8079 0050580  47.6176 312.9268 14.24688188198127

Sigue CZ-6A DEB en tiempo real con AllMySat

Download on the App Store